Weather History for Veracruz Airport, Mexico

Change the Weather History Date:

Wednesday, March 27, 2013

  Actual Average Record
Temperature  
Mean Temperature 68 °F -  
Max Temperature 75 °F 87 °F 100 °F (2009)
Min Temperature 62 °F 70 °F 62 °F (2013)
Cooling Degree Days 4    
Growing Degree Days 18 (Base 50)    
Moisture  
Dew Point 62 °F    
Average Humidity 75    
Maximum Humidity 94    
Minimum Humidity 61    
Precipitation  
Precipitation 0.00 in - - ()
Sea Level Pressure  
Sea Level Pressure 30.19 in    
Wind  
Wind Speed 5 mph ()    
Max Wind Speed 14 mph    
Max Gust Speed -    
Visibility 6.8 miles    
Events      
Averages and records for this station are not official NWS values.
T = Trace of Precipitation, MM = Missing Value Source: Averaged Metar Reports

Daily Weather History Graph

Daily Weather History Graph

Search for Another Location

Airport:

Trip Planner

Search our weather history database for the weather conditions in past years. The results will help you decide how hot, cold, wet, or windy it might be!

Date:

Astronomy

Mar. 27, 2013 Rise Set
Actual Time 6:22 AM CST 6:37 PM CST
Civil Twilight 6:00 AM CST 6:59 PM CST
Nautical Twilight 5:35 AM CST 7:25 PM CST
Astronomical Twilight 5:09 AM CST 7:50 PM CST
Moon 7:10 PM CST (3/27) 6:21 AM CST (3/27)
Length of Visible Light 12h 58m
Length of Day
12h 14m
Full, 100% of the Moon is Illuminated
Mar 27
Full
Apr 2
Last Quarter
Apr 10
New
Apr 18
First Quarter
Apr 25
Full

Hourly Weather History & Observations

Time (CST) Temp. Dew Point Humidity Pressure Visibility Wind Dir Wind Speed Gust Speed Precip Events Conditions
5:11 AM 64.4 °F 60.8 °F 88% 30.22 in 7.0 mi WNW 5.8 mph - N/A   Overcast
5:49 AM 64.4 °F 60.8 °F 88% 30.19 in 5.0 mi SW 3.5 mph - N/A   Light Drizzle
6:44 AM 62.6 °F 60.8 °F 94% 30.25 in 6.0 mi NW 3.5 mph - N/A   Overcast
7:51 AM 64.4 °F 62.6 °F 94% 30.26 in 6.0 mi West 3.5 mph - N/A   Overcast
8:49 AM 68.0 °F 62.6 °F 83% 30.24 in 7.0 mi Calm Calm - N/A   Overcast
9:48 AM 69.8 °F 62.6 °F 78% 30.27 in 7.0 mi Calm Calm - N/A   Overcast
10:48 AM 71.6 °F 60.8 °F 69% 30.26 in 7.0 mi ENE 4.6 mph - N/A   Overcast
11:51 AM 73.4 °F 60.8 °F 65% 30.22 in 7.0 mi Calm Calm - N/A   Overcast
12:48 PM 75.2 °F 60.8 °F 61% 30.20 in 7.0 mi East 6.9 mph - N/A   Mostly Cloudy
1:52 PM 75.2 °F 60.8 °F 61% 30.16 in 7.0 mi East 10.4 mph - N/A   Mostly Cloudy
2:45 PM 73.4 °F 62.6 °F 69% 30.14 in 7.0 mi ESE 11.5 mph - N/A   Mostly Cloudy
3:43 PM 73.4 °F 62.6 °F 69% 30.12 in 7.0 mi ESE 13.8 mph - N/A   Mostly Cloudy
4:43 PM 73.4 °F 62.6 °F 69% 30.12 in 7.0 mi East 10.4 mph - N/A   Mostly Cloudy
5:43 PM 71.6 °F 62.6 °F 73% 30.09 in 7.0 mi East 10.4 mph - N/A   Overcast
6:48 PM 71.6 °F 62.6 °F 73% 30.15 in 7.0 mi ESE 8.1 mph - N/A   Overcast
7:41 PM 71.6 °F 62.6 °F 73% 30.16 in 7.0 mi ESE 6.9 mph - N/A   Overcast
8:42 PM 71.6 °F 62.6 °F 73% 30.12 in 7.0 mi SE 9.2 mph - N/A   Overcast
9:41 PM 71.6 °F 62.6 °F 73% 30.19 in 7.0 mi ESE 10.4 mph - N/A   Overcast
10:42 PM 71.6 °F 62.6 °F 73% 30.19 in 7.0 mi SSE 5.8 mph - N/A   Overcast